Regional Weather Roundup
Issued by NWS Pendleton, OR

Home | Current Version | Previous Version | Text Only | Print | Product List | Glossary On
Versions: 1 2 3 4 5 6 7 8 9 10 11 12 13 14 15 16 17 18 19 20 21 22 23 24 25 26 27 28 29 30 31 32 33 34 35 36 37 38 39 40 41 42 43 44 45 46 47 48 49 50
000
ASUS46 KPDT 230825
RWRPDT
PENDLETON REGIONAL WEATHER ROUNDUP
NATIONAL WEATHER SERVICE PENDLETON OREGON
100 AM PDT TUE SEP 23 2014

NOTE: FAIR INDICATES FEW OR NO CLOUDS BELOW 12,000 FEET WITH NO
SIGNIFICANT WEATHER AND/OR OBSTRUCTIONS TO VISIBILITY.

# INDICATES UNOFFICIAL STATION AND DATA

WAZ520-230910-
EAST SLOPES OF WASHINGTON CASCADES

CITY            SKY/WX      TMP DP  RH  WIND    PRES   REMARKS
#BUMPING DAM    N/A         57  N/A N/A S2      N/A
#CLE ELUM HS    N/A         56  50  80  CALM    29.89S
#CLE ELUM 2NW   N/A         56  50  80  CALM    N/A
#CLE ELUM LAKE  N/A         59  49  69  CALM    29.81S
#CLIFFDEL 2NW   N/A         58  50  75  S1      N/A
#GLENWOOD       N/A         56  50  80  CALM    29.87F
#MANASTASH CYN  N/A         55  43  64  CALM    29.93F
#NELSON         N/A         57  53  86  CALM    29.86F
#NELSON 3SW     N/A         55  50  83  CALM    30.02F
#NILE           N/A         58  49  72  CALM    29.14F
#RONALD 2NW     N/A         59  48  67  CALM    29.83F
#SNOWDEN        N/A          0  -78  1  CALM    N/A
#TEANAWAY 4NE   N/A         56  52  86  CALM    N/A
#TROUT LAKE 1NE N/A         58  50  75  NW1     29.87S
$$

WAZ521-230910-
SIMCOE HIGHLANDS

CITY            SKY/WX      TMP DP  RH  WIND    PRES   REMARKS
#BICKLETON HS   N/A         64  35  34  W3      30.06S
#CENTERVILLE 4W N/A         64  47  54  N3      29.68F
#CENTERVILLE 1SWN/A         57  44  62  CALM    29.83F
#GOLDENDALE     N/A         63  47  56  CALM    N/A
#GOLDENDALE 1NE N/A         60  40  47  N3      N/A
#GOLDENDALE 1S  N/A         61  47  60  NE3     29.89F
#GOLDENDALE 5WNWN/A         61  44  53  CALM    29.84F
#GOODNOE HILLS  N/A         67  51  56  SW3     29.85F
#LYLE 6NE       N/A         60  52  75  CALM    29.85F
$$

WAZ026-230910-
KITTITAS VALLEY

CITY            SKY/WX      TMP DP  RH  WIND    PRES   REMARKS
ELLENSBURG AP   MOCLDY      59  51  75  E8      29.91F
#ELLENSBURG CWU N/A         59  52  78  CALM    29.81F
#ELLENSBURG 3NE N/A         56  51  83  CALM    29.91F
#ELLENSBURG     N/A         60  56  87  CALM    N/A
#KITTITAS 3S    N/A         56  53  90  CALM    29.84S
#THORP 6N       N/A         58  50  75  N3      29.85F
$$

WAZ027-230910-
YAKIMA VALLEY

CITY            SKY/WX      TMP DP  RH  WIND    PRES   REMARKS
SUNNYSIDE AP    CLOUDY      57  52  83  E5      29.89R
YAKIMA AIRPORT  CLOUDY      65  50  58  SE5     29.89S
#COWICHE 1N     N/A         66  48  52  E1      30.08S
#DONALD 2NE     N/A         69  43  39  S1      30.22S
#GRANDVIEW      N/A         67  50  54  CALM    29.88R
#MABTON         N/A         70  51  51  CALM    29.88R
#MOXEE 2E       N/A         64  38  38  SE3     29.85S
#NACHES 2SW     N/A         64  51  63  CALM    29.92S
#OUTLOOK DOT    N/A         N/A N/A N/A CALM    N/A
#SELAH 8E       N/A         68  42  39  S15     N/A
#TERRACE HTS    N/A         68  46  45  CALM    29.82S
#TOPPENISH      N/A         65  50  58  CALM    29.78S
#WAPATO 4NE     N/A         69  43  39  S1      30.22S
#W YAKIMA       N/A         68  49  51  CALM    29.84R
#WHITE SWAN 5E  N/A         64  50  60  NE2     29.85S
#WILEY CITY 3W  N/A         63  48  58  CALM    29.89S
$$

WAZ028-230910-
LOWER COLUMBIA BASIN...WASHINGTON

CITY            SKY/WX      TMP DP  RH  WIND    PRES   REMARKS
HANFORD         CLOUDY      73  50  44  SE7     29.88S
PASCO           MOCLDY      70  59  68  SE9     29.89S
PROSSER AWOS    N/A         73  48  41  S9      29.92R
RICHLAND AWOS   CLOUDY      72  57  59  CALM    29.89R
#BASIN CITY 5SW N/A         68  59  73  SE2     29.89R
#BENTON CITY    N/A         71  55  57  S5G24   29.74F
#CONNELL 5N     N/A         70  55  59  SE1     29.86F
#CONNELL 5NW    N/A         68  57  68  S5      29.82S
#ELTOPIA        N/A         67  58  73  SW3     29.85
#ELTOPIA 6NW    N/A         66  58  75  S2      28.87S
#KENNEWICK 3S   N/A         70  60  71  SW6     29.87R
#PASCO-BROADMOORN/A         70  61  73  CALM    29.78R
#PATERSON       N/A         68  59  73  CALM    29.85S
#PROSSER        N/A         71  48  44  S10     29.84S
#SAGEMOOR 2W    N/A         67  59  75  SE1     29.74R
#TOUCHET 2S     N/A         65  60  84  CALM    29.85S
#WEST PASCO     N/A         70  59  68  CALM    29.87S
$$

WAZ029-230910-
FOOTHILLS OF THE BLUES...WASHINGTON

CITY            SKY/WX      TMP DP  RH  WIND    PRES   REMARKS
WALLA WALLA AP  CLOUDY      66  59  78  E5      29.92F
#DAYTON SCHOOL  N/A         61  55  81  CALM    29.93S
#LOWDEN 2SE     N/A         64  60  87  CALM    29.85F
#PLEASANT VIEW 1N/A         69  50  51  CALM    29.89S
#PRESCOTT       N/A         64  59  84  CALM    29.85F
#SUDBURY        N/A         66  N/A N/A CALM    N/A
#WHITMAN COLLEGEN/A         67  58  73  CALM    29.91S
#WAITSBURG 8N   N/A         64  44  48  CALM    29.85S
#WALLA WALLA 5E N/A         67  58  73  W7      N/A
#WALLA WALLA U  N/A         67  61  81  CALM    29.85F
#WHITMAN MISSIONN/A         65  60  84  CALM    29.87S
$$

WAZ030-230910-
BLUE MOUNTAINS...WASHINGTON

CITY            SKY/WX      TMP DP  RH  WIND    PRES   REMARKS
$$

ORZ009-041-WAZ024-230910-
COLUMBIA RIVER GORGE

CITY            SKY/WX      TMP DP  RH  WIND    PRES   REMARKS
HOOD RIVER AP   CLOUDY      61  54  78  S5      29.92F
THE DALLES AP   CLOUDY      66  52  61  S6      29.90S
#ARLINGTON AIRPON/A         68  50  53  SW1     29.94F
#ARLINGTON HS   N/A         70  50  49  CALM    29.77F
#MARYHILL 2W    N/A         67  54  63  E1      N/A
#MOSIER 1S      N/A         63  46  54  CALM    29.91F
#MURDOCK        N/A         69  55  61  CALM    29.91S
#RUFUS DOT      N/A         70  53  55  N3      N/A

$$

ORZ510-230910-
NORTH CENTRAL OREGON

CITY            SKY/WX      TMP DP  RH  WIND    PRES   REMARKS
#CHENOWITH 1W   N/A         61  50  67  W13     N/A
#COW CYN RST AREN/A         65  51  60  NE6     N/A
#DUFUR 9E       N/A         64  47  54  E3      29.91F
#GRASS VALLEY   N/A         60  47  62  CALM    N/A
#GRASS VALLEY 1SN/A         61  47  60  CALM    29.87F
#KENT DOT       N/A         62  41  46  E5      N/A
#MAUPIN SCHOOL  N/A         68  52  57  CALM    28.79S
#MORO SCHOOL    N/A         61  54  78  CALM    29.94F
#SHANIKO 5WSW   N/A         62  43  50  E8      N/A
#SHANIKO 4NW    N/A         62  47  58  E8      29.99F
#TYGH VALLEY 2NEN/A         65  48  54  CALM    29.85F
#WAPANITIA AIRPON/A         60  44  55  N1      29.86R
#WASCO DOT      N/A         61  53  75  CALM    N/A
#WASCO AIRPORT  N/A         64  48  56  SW1     N/A
#WASCO 5NE      N/A         63  50  62  CALM    29.86F
$$

ORZ511-230910-
CENTRAL OREGON

CITY            SKY/WX      TMP DP  RH  WIND    PRES   REMARKS
BEND AIRPORT    MOCLDY      57  46  67  CALM    30.01F
MADRAS AIRPORT  MOCLDY      64  48  56  N3      29.96F
REDMOND AIRPORT MOCLDY      57  46  67  CALM    29.98S
#BEND 6E        N/A         59  45  60  CALM    29.76F
#BEND 1SW       N/A         58  45  62  N2      N/A
#BEND-AWBREY    N/A         61  44  53  CALM    29.83S
#BEND-KIM LN    N/A         59  48  67  CALM    29.97F
#CROOKED RVR RANN/A         63  52  67  SW18    29.82F
#CULVER         N/A         62  48  60  S1      29.92F
#LAKE BILLY CHINN/A         66   8  10  CALM    30.00S
#POWELL BUTTE 3EN/A         59  51  75  E2      N/A
#POWELL BUTTE   N/A         61  48  62  CALM    29.64F
#PRINEVILLE 3N  N/A         57  53  86  CALM    29.80F


ORZ509-230910-
EAST SLOPES OF OREGON CASCADES

CITY            SKY/WX      TMP DP  RH  WIND    PRES   REMARKS
#BLUE BOX PASS  N/A         57   4  11  CALM    N/A
#CAMP SHERMAN   N/A         57  41  55  CALM    29.84R
#LA PINE DOT    N/A         50  42  74  CALM    N/A
#LA PINE 4NW    N/A         48  40  74  CALM    29.90S
#LAVA BUTTE DOT N/A         53  40  61  CALM    N/A
#SISTERS AIRPOR N/A         60  51  72  CALM    29.91S
#SISTERS ODOT   N/A         57  N/A N/A CALM    N/A
#SISTERS 1NW    N/A         59  41  51  NE7     N/A
#SISTERS 3N     N/A         57  39  51  CALM    N/A
#SUNRIVER       N/A         54  46  74  CALM    29.75S
#SUNRIVER AP    N/A         54  47  77  CALM    29.82S
#SUTTLE LK DOT  N/A         54  43  66  W21G31  N/A
#TUMALO 3W      N/A         63  44  50  S3      29.72F
#WANOGA BUTTE D N/A         54  40  59  NE2     N/A

$$

ORZ044-230910-
LOWER COLUMBIA BASIN...OREGON

CITY            SKY/WX      TMP DP  RH  WIND    PRES   REMARKS
HERMISTON       CLOUDY      67  57  70  CALM    29.90R
#BOARDMAN SCHOOLN/A         68  53  59  CALM    29.88S
#BOARDMAN 3W    N/A         66  52  61  SE2     29.59S
#BOARDMAN 8SW   N/A         66  55  68  CALM    29.86F
#ECHO 8SW       N/A         67  53  61  CALM    29.87R
#IONE SCHOOL    N/A         64  52  65  CALM    29.91S
#IRRIGON 4NW    N/A         67  55  65  W3      N/A
#UMATILLA       N/A         69  56  63  CALM    29.87R
$$

ORZ507-230910-
NORTHERN FOOTHILLS OF THE BLUES

CITY            SKY/WX      TMP DP  RH  WIND    PRES   REMARKS
PENDLETON AIRPT CLOUDY      64  58  81  CALM    29.92S
#ADAMS 3WNW     N/A         63  57  81  CALM    29.86F
#ATHENA         N/A         66  56  70  CALM    29.88F
#HELIX SCHOOL   N/A         62  57  84  CALM    29.86F
#HELIX 3N       N/A         64  57  78  SW7     29.91S
#HOLDMAN 5SE    N/A         64  58  81  CALM    29.93R
#HOLDMAN 6E     N/A         63  57  81  NW2     29.68S
#M-F GROVE ELEM N/A         67  54  63  CALM    29.89S
#M-FREEWATER 5SEN/A         64  57  78  CALM    29.91S
#PENDLETON DNTN N/A         62  59  90  CALM    29.91F
#PDT AQUATIC CTRN/A         64  54  70  CALM    29.94R
#PDT SUNRIDGE   N/A         62  59  90  CALM    29.93S
#PENDLETON 7NW  N/A         64  58  81  E2      32.41S
#PILOT ROCK     N/A         63  55  75  CALM    29.95S
#TUTUILLA       N/A         64  57  78  S2      29.89F

$$

ORZ508-230910-
SOUTHERN FOOTHILLS OF THE BLUES

CITY            SKY/WX      TMP DP  RH  WIND    PRES   REMARKS
LEXINGTON       CLOUDY      63  55  75  S3      29.95F
#AJAX           N/A         65  41  41  E3      29.90F
#CONDON SCHOOL  N/A         61  54  78  CALM    29.94F
#CONDON 5W      N/A         62  51  67  E3      29.96F
#FOSSIL SCHOOL  N/A         62  55  78  CALM    29.95F
#HEPPNER 4NE    N/A         61  52  72  CALM    29.86R
#LEXINGTON 2SE  N/A         65  56  73  SE1     29.88F
#MIKKALO        N/A         63  46  54  SE2     29.94S
#OLEX 4N        N/A         65  51  60  CALM    29.91S
#RUGGS 5NE      N/A         62  52  70  VRB5    30.14S
#RUGGS 2SW      N/A         64  54  70  E2      29.86S

$$

ORZ502-503-230910-
BLUE MOUNTAINS

CITY            SKY/WX      TMP DP  RH  WIND    PRES   REMARKS
MEACHAM         MOCLDY      57  55  93  CALM    30.02S
#BATTLE MTN DOT N/A         56  56  100 S6      N/A
#HARDMAN 10S    N/A         55  52  90  CALM    30.09F
#HEPPNER 15SE   N/A         58  52  80  E1      29.94F
#LADD CYN SMT   N/A         56  52  86  S1      N/A
#LADD CREEK ODOTN/A         57  56  96  CALM    N/A
#N POWDER DOT   N/A         56  56  100 CALM    N/A
#PIKES PEAK     N/A         69  47  45  SE15G28 27.99S
#TOLLGATE       N/A         53  49  86  SE1     30.00F
#TROY SCHOOL    N/A         62  59  90  CALM    29.80R
#UKIAH          N/A         56  54  93  CALM    29.93S
#WESTON 4E      N/A         62  53  72  E10     29.78S
$$

ORZ505-230910-
JOHN DAY BASIN

CITY            SKY/WX      TMP DP  RH  WIND    PRES   REMARKS
JOHN DAY        PTCLDY      60  55  84  E5      30.01F
#JOHN DAY KJDY  N/A         61  55  81  CALM    30.13F
#MONUMENT HS    N/A         61  57  87  CALM    29.98S
#MT. VERNON 5SE N/A         59  52  78  E1      29.98F
#WINLOCK        N/A         59  53  80  CALM    30.07F
$$

ORZ506-230910-
OCHOCO AND JOHN DAY HIGHLANDS

CITY            SKY/WX      TMP DP  RH  WIND    PRES   REMARKS
#BUCK CREEK DOT N/A         59  57  93  SE7     N/A
#HORSE RIDGE DO N/A         49  48  96  N2      N/A
#KEYES SMT DOT  N/A         53  53  100 E3      N/A
#PAULINA SCHOOL N/A         53  49  86  CALM    30.01F
#PINE MTN OBS   N/A         55  45  69  NE2     N/A
#PRAIRIE CITY   N/A         53  52  96  CALM    29.99S
#SENECA 9NW     N/A         50  49  96  CALM    29.87S
$$

ORZ049-230910-
GRANDE RONDE VALLEY

CITY            SKY/WX      TMP DP  RH  WIND    PRES   REMARKS
LA GRANDE       PTCLDY      59  48  67  CALM    30.00F
#COVE           N/A         57  57  100 CALM    29.93F
#COVE SCHOOL    N/A         57  54  90  CALM    29.99F
#COVE 6NW       N/A         57  54  90  CALM    29.92F
#ELGIN 3N       N/A         58  54  87  CALM    29.75F
#ELGIN 1E       N/A         59  54  83  CALM    N/A
#IMBLER SCHOOL  N/A         58  48  69  NE2     29.97F
#LADD CYN DOT   N/A         59  57  93  CALM    N/A
#LA GRANDE ELEM N/A         58  56  93  CALM    29.99F
#UNION 1S       N/A         58  56  93  CALM    29.79F
$$

ORZ050-230910-
WALLOWA COUNTY

CITY            SKY/WX      TMP DP  RH  WIND    PRES   REMARKS
JOSEPH AIRPORT  CLOUDY      59  52  78  W5      30.07F
#ENTERPRISE AP  N/A         58  52  80  W3      30.00R
#ENTERPRISE HS  N/A         59  54  83  CALM    30.06F
#IMNAHA SCHOOL  N/A         64  57  78  NW1     29.96F
#IMNAHA 10S     N/A         58  54  87  W2      30.00F
#JOSEPH 3N      N/A         56  51  83  W7      30.06F
#JOSEPH 3W      N/A         56  51  83  CALM    29.91F
#LOSTINE        N/A         56  53  90  CALM    29.72S
#MT HOWARD 8000 N/A         51  39  63  SE15G24 30.26F
#PROMISE 1S     N/A         55  53  93  CALM    30.02F
#SHEEP RDG 7000 N/A         55  40  57  CALM    29.83S
#WALLOWA SCHOOL N/A         57  56  96  CALM    30.82F



$$



USA.gov is the U.S. government's official web portal to all federal, state and local government web resources and services.